sat.trackr.live / text

‹ back to catalog

STARLINK-35669

NORAD 66396 · 2025-257S

PAYLOAD ACTIVE UNKNOWN

§ Identity

Operator
Country
US
Launch date
2025-11-09
Launch site
AFETR
Launch vehicle
Mass (kg)
RCS (m²)

Purposes: comms

External: N2YO · Heavens-Above · Gunter

§ Orbital elements

Epoch: 2026-05-25T04:59:10.284288Z

Period
93.85 min
Inclination
53.1583°
Eccentricity
0.0001097
Mean motion
15.34411512 rev/d
Perigee alt
461.9 km
Apogee alt
463.4 km
Semi-major
6,840.8 km
B*
5.4157e-4
RAAN
220.5498°
Arg perigee
86.1044°
Mean anomaly
274.0084°
Rev number
3,146

§ Raw data

STARLINK-356691 66396U 25257S   26145.20775792  .00017972  00000+0  54157-3 0  99982 66396  53.1583 220.5498 0001097  86.1044 274.0084 15.34411512 31463

JSON: /api/v1/satellites/66396 · /tle

For live sub-satellite position, see the globe view (requires WebGL).

§ Visibility from observer

Set your observer location to see the next 7 days of passes ≥ 10°. The values pass through the URL so the page stays shareable.

No JS? Fill the form by hand. The geolocation button needs JavaScript.